WZZ67 LHBP-EDLW

Flight info

Callsign WZZ67
Flight time 1h 22m
Altitude 38000
Route GILEP DCT ZOLKU DCT BEGLA DCT DITIS DCT RAPET T170 RUNEN DCT FULNO/N0419F300 T842 IDEWE/N0381F240 T842 ADEMI ADEMI2A
Aircraft A321/M-SDE1E2E3FGIJ1J4RWXY/LB1

Departure

Time 2026-05-07 08:59
Airport Budapest Liszt Ferenc International Airport (LHBP)

Arrival

Time 2026-05-07 10:22
Airport Dortmund Airport (EDLW)
Time Latitude Longitude Altitude Speed Heading
2026-05-07 08:34 47.43478 19.26531 457 ft 0 kts 222°
2026-05-07 08:51 47.43487 19.26544 458 ft 4 kts 223°
2026-05-07 08:51 47.43503 19.26567 454 ft 4 kts 246°
2026-05-07 08:51 47.43505 19.26602 453 ft 4 kts 296°
2026-05-07 08:51 47.43490 19.26634 454 ft 4 kts 313°
2026-05-07 08:52 47.43474 19.26659 453 ft 0 kts 312°
2026-05-07 08:54 47.43481 19.26648 456 ft 4 kts 312°
2026-05-07 08:54 47.43508 19.26604 458 ft 8 kts 312°
2026-05-07 08:54 47.43558 19.26523 457 ft 13 kts 313°
2026-05-07 08:55 47.43628 19.26410 458 ft 17 kts 312°
2026-05-07 08:55 47.43679 19.26258 458 ft 17 kts 271°
2026-05-07 08:55 47.43683 19.26076 457 ft 18 kts 291°
2026-05-07 08:55 47.43728 19.25919 457 ft 16 kts 252°
2026-05-07 08:56 47.43648 19.25795 457 ft 17 kts 221°
2026-05-07 08:56 47.43556 19.25671 457 ft 18 kts 222°
2026-05-07 08:56 47.43458 19.25540 457 ft 20 kts 222°
2026-05-07 08:56 47.43356 19.25404 455 ft 20 kts 222°
2026-05-07 08:57 47.43253 19.25265 457 ft 19 kts 222°
2026-05-07 08:57 47.43158 19.25139 457 ft 18 kts 222°
2026-05-07 08:57 47.43077 19.25031 457 ft 12 kts 226°
2026-05-07 08:57 47.43088 19.24961 457 ft 0 kts 312°
2026-05-07 08:58 47.43101 19.24939 457 ft 16 kts 312°
2026-05-07 08:58 47.43372 19.24499 453 ft 97 kts 312°
2026-05-07 08:58 47.43983 19.23511 458 ft 160 kts 311°
2026-05-07 08:59 47.44758 19.22265 1091 ft 162 kts 306°
2026-05-07 08:59 47.45516 19.21038 2025 ft 161 kts 308°
2026-05-07 08:59 47.46264 19.19827 2934 ft 159 kts 308°
2026-05-07 08:59 47.47006 19.18626 3837 ft 159 kts 307°
2026-05-07 09:00 47.47791 19.17344 4507 ft 179 kts 308°
2026-05-07 09:00 47.48671 19.15869 5079 ft 201 kts 303°
2026-05-07 09:00 47.49349 19.13974 5482 ft 219 kts 284°
2026-05-07 09:00 47.49528 19.11644 5891 ft 241 kts 260°
2026-05-07 09:01 47.49014 19.09209 6577 ft 255 kts 241°
2026-05-07 09:01 47.47931 19.07108 7456 ft 261 kts 223°
2026-05-07 09:01 47.46388 19.05656 8430 ft 267 kts 202°
2026-05-07 09:01 47.44616 19.04782 9444 ft 270 kts 199°
2026-05-07 09:02 47.42813 19.03907 10307 ft 277 kts 202°
2026-05-07 09:02 47.41160 19.02289 10581 ft 299 kts 227°
2026-05-07 09:02 47.40150 18.99537 11052 ft 315 kts 254°
2026-05-07 09:02 47.40125 18.96272 11725 ft 327 kts 281°
2026-05-07 09:03 47.40862 18.93062 12500 ft 332 kts 287°
2026-05-07 09:03 47.41654 18.89841 13297 ft 335 kts 286°
2026-05-07 09:03 47.42447 18.86584 14038 ft 338 kts 286°
2026-05-07 09:03 47.43242 18.83295 14720 ft 342 kts 286°
2026-05-07 09:04 47.44042 18.79968 15391 ft 346 kts 286°
2026-05-07 09:04 47.44848 18.76601 16064 ft 350 kts 285°
2026-05-07 09:04 47.45660 18.73195 16748 ft 354 kts 285°
2026-05-07 09:04 47.46482 18.69752 17429 ft 358 kts 285°
2026-05-07 09:05 47.47316 18.66266 18100 ft 362 kts 285°
2026-05-07 09:05 47.48157 18.62749 18738 ft 365 kts 285°
2026-05-07 09:05 47.48993 18.59244 19351 ft 367 kts 285°
2026-05-07 09:05 47.49847 18.55662 19942 ft 371 kts 285°
2026-05-07 09:06 47.50710 18.52040 20534 ft 376 kts 285°
2026-05-07 09:06 47.51582 18.48377 21119 ft 380 kts 285°
2026-05-07 09:06 47.52463 18.44670 21707 ft 384 kts 285°
2026-05-07 09:06 47.53352 18.40922 22258 ft 388 kts 285°
2026-05-07 09:07 47.54251 18.37130 22833 ft 392 kts 285°
2026-05-07 09:07 47.55156 18.33298 23398 ft 396 kts 285°
2026-05-07 09:07 47.56068 18.29427 23889 ft 400 kts 285°
2026-05-07 09:07 47.56984 18.25525 24410 ft 402 kts 284°
2026-05-07 09:08 47.57904 18.21616 25001 ft 402 kts 284°
2026-05-07 09:08 47.58820 18.17701 25531 ft 403 kts 283°
2026-05-07 09:08 47.59740 18.13768 26025 ft 405 kts 283°
2026-05-07 09:08 47.60663 18.09812 26513 ft 407 kts 283°
2026-05-07 09:09 47.61589 18.05836 26984 ft 410 kts 283°
2026-05-07 09:09 47.62205 18.03187 27294 ft 411 kts 283°
2026-05-07 09:09 47.63137 17.99172 27765 ft 413 kts 283°
2026-05-07 09:09 47.64076 17.95127 28220 ft 416 kts 283°
2026-05-07 09:10 47.65018 17.91064 28667 ft 418 kts 283°
2026-05-07 09:10 47.65963 17.86974 29156 ft 421 kts 283°
2026-05-07 09:10 47.66913 17.82851 29579 ft 423 kts 283°
2026-05-07 09:10 47.67866 17.78703 30013 ft 426 kts 283°
2026-05-07 09:11 47.68823 17.74533 30375 ft 428 kts 283°
2026-05-07 09:11 47.69785 17.70340 30752 ft 430 kts 283°
2026-05-07 09:11 47.70748 17.66133 31120 ft 431 kts 283°
2026-05-07 09:11 47.71716 17.61908 31486 ft 433 kts 282°
2026-05-07 09:12 47.72685 17.57660 31854 ft 435 kts 282°
2026-05-07 09:12 47.73654 17.53404 32287 ft 434 kts 282°
2026-05-07 09:12 47.74618 17.49167 32880 ft 431 kts 282°
2026-05-07 09:12 47.75575 17.44958 33415 ft 429 kts 281°
2026-05-07 09:13 47.76525 17.40769 33957 ft 426 kts 281°
2026-05-07 09:13 47.77464 17.36605 34412 ft 424 kts 281°
2026-05-07 09:13 47.78396 17.32449 34799 ft 423 kts 281°
2026-05-07 09:13 47.79322 17.28299 35143 ft 423 kts 281°
2026-05-07 09:14 47.80251 17.24141 35488 ft 424 kts 282°
2026-05-07 09:14 47.81179 17.19983 35814 ft 424 kts 282°
2026-05-07 09:14 47.82114 17.15818 36139 ft 425 kts 283°
2026-05-07 09:14 47.83321 17.11763 36455 ft 433 kts 293°
2026-05-07 09:15 47.84985 17.07983 36756 ft 441 kts 302°
2026-05-07 09:15 47.86944 17.04443 37035 ft 443 kts 303°
2026-05-07 09:15 47.88912 17.00909 37337 ft 443 kts 303°
2026-05-07 09:15 47.90872 16.97377 37646 ft 442 kts 303°
2026-05-07 09:16 47.92829 16.93835 37916 ft 442 kts 303°
2026-05-07 09:16 47.94753 16.90339 37987 ft 442 kts 303°
2026-05-07 09:16 47.98640 16.83251 37993 ft 441 kts 303°
2026-05-07 09:17 48.02517 16.76164 37998 ft 440 kts 303°
2026-05-07 09:17 48.06391 16.69071 38002 ft 440 kts 303°
2026-05-07 09:18 48.10261 16.61972 38001 ft 440 kts 303°
2026-05-07 09:18 48.14126 16.54868 38008 ft 440 kts 303°
2026-05-07 09:19 48.17980 16.47746 38012 ft 440 kts 303°
2026-05-07 09:19 48.21832 16.40614 38028 ft 441 kts 303°
2026-05-07 09:20 48.25688 16.33457 38013 ft 441 kts 303°
2026-05-07 09:20 48.29546 16.26282 38001 ft 442 kts 303°
2026-05-07 09:21 48.33404 16.19087 37989 ft 442 kts 303°
2026-05-07 09:21 48.37261 16.11877 37992 ft 443 kts 303°
2026-05-07 09:22 48.41120 16.04647 37995 ft 444 kts 303°
2026-05-07 09:22 48.44981 15.97371 37976 ft 445 kts 303°
2026-05-07 09:23 48.48853 15.90069 37971 ft 446 kts 303°
2026-05-07 09:23 48.52731 15.82750 37971 ft 447 kts 303°
2026-05-07 09:24 48.56609 15.75414 37995 ft 448 kts 303°
2026-05-07 09:24 48.60490 15.68039 37981 ft 449 kts 303°
2026-05-07 09:25 48.64374 15.60637 37977 ft 450 kts 303°
2026-05-07 09:25 48.66949 15.55721 37978 ft 450 kts 303°
2026-05-07 09:28 48.85808 15.19395 37987 ft 452 kts 303°
2026-05-07 09:28 48.89683 15.11869 37984 ft 452 kts 303°
2026-05-07 09:29 48.93480 15.04262 37993 ft 451 kts 302°
2026-05-07 09:29 48.97167 14.96628 37988 ft 451 kts 302°
2026-05-07 09:30 49.00881 14.88934 37994 ft 451 kts 301°
2026-05-07 09:30 49.04611 14.81237 37987 ft 452 kts 301°
2026-05-07 09:31 49.08344 14.73526 37984 ft 452 kts 301°
2026-05-07 09:31 49.12075 14.65802 37978 ft 451 kts 302°
2026-05-07 09:32 49.15792 14.58084 37976 ft 451 kts 301°
2026-05-07 09:32 49.19498 14.50350 37980 ft 451 kts 301°
2026-05-07 09:33 49.23201 14.42609 37983 ft 451 kts 301°
2026-05-07 09:33 49.26899 14.34865 37977 ft 450 kts 301°
2026-05-07 09:34 49.30577 14.27123 37988 ft 448 kts 301°
2026-05-07 09:34 49.34238 14.19393 37988 ft 448 kts 301°
2026-05-07 09:35 49.37885 14.11655 37986 ft 448 kts 301°
2026-05-07 09:35 49.41533 14.03905 37984 ft 448 kts 301°
2026-05-07 09:36 49.45155 13.96205 38011 ft 448 kts 302°
2026-05-07 09:36 49.48799 13.88452 38000 ft 447 kts 302°
2026-05-07 09:37 49.52428 13.80705 37994 ft 446 kts 302°
2026-05-07 09:37 49.56040 13.72947 37991 ft 445 kts 302°
2026-05-07 09:38 49.59642 13.65185 37989 ft 445 kts 302°
2026-05-07 09:38 49.63231 13.57420 38017 ft 445 kts 302°
2026-05-07 09:39 49.66822 13.49637 38004 ft 445 kts 302°
2026-05-07 09:39 49.70409 13.41845 37993 ft 445 kts 302°
2026-05-07 09:40 49.73988 13.34042 37997 ft 445 kts 302°
2026-05-07 09:40 49.77565 13.26225 37994 ft 445 kts 302°
2026-05-07 09:41 49.81140 13.18404 37993 ft 445 kts 302°
2026-05-07 09:41 49.84711 13.10567 37959 ft 445 kts 302°
2026-05-07 09:42 49.88275 13.02714 37957 ft 445 kts 302°
2026-05-07 09:42 49.91830 12.94853 37968 ft 445 kts 302°
2026-05-07 09:43 49.95361 12.87026 37954 ft 446 kts 302°
2026-05-07 09:43 49.98911 12.79131 37974 ft 446 kts 302°
2026-05-07 09:44 50.02466 12.71207 37970 ft 447 kts 302°
2026-05-07 09:44 50.06014 12.63267 37966 ft 447 kts 302°
2026-05-07 09:45 50.09556 12.55302 37961 ft 448 kts 302°
2026-05-07 09:45 50.13105 12.47328 37962 ft 448 kts 302°
2026-05-07 09:46 50.16649 12.39332 37973 ft 448 kts 302°
2026-05-07 09:46 50.19730 12.30952 37969 ft 443 kts 288°
2026-05-07 09:47 50.21807 12.21905 37968 ft 443 kts 287°
2026-05-07 09:47 50.23888 12.12832 37964 ft 444 kts 287°
2026-05-07 09:48 50.25963 12.03744 37963 ft 445 kts 287°
2026-05-07 09:48 50.28051 11.94629 37970 ft 446 kts 287°
2026-05-07 09:49 50.30151 11.85495 37966 ft 446 kts 287°
2026-05-07 09:49 50.32247 11.76352 37971 ft 447 kts 287°
2026-05-07 09:50 50.34332 11.67198 37974 ft 447 kts 287°
2026-05-07 09:50 50.36401 11.58027 37979 ft 447 kts 287°
2026-05-07 09:51 50.38464 11.48844 37970 ft 447 kts 287°
2026-05-07 09:51 50.40525 11.39652 37966 ft 447 kts 287°
2026-05-07 09:52 50.42233 11.32001 37966 ft 447 kts 287°
2026-05-07 09:52 50.44279 11.22786 37966 ft 448 kts 287°
2026-05-07 09:53 50.46318 11.13552 37981 ft 448 kts 287°
2026-05-07 09:53 50.48352 11.04314 37974 ft 448 kts 287°
2026-05-07 09:54 50.50382 10.95070 37970 ft 448 kts 287°
2026-05-07 09:54 50.51398 10.90426 37389 ft 452 kts 287°
2026-05-07 09:54 50.52411 10.85765 36870 ft 450 kts 287°
2026-05-07 09:54 50.53419 10.81116 36302 ft 449 kts 287°
2026-05-07 09:55 50.54442 10.76482 35714 ft 449 kts 288°
2026-05-07 09:55 50.55494 10.71828 34920 ft 454 kts 288°
2026-05-07 09:55 50.56569 10.67127 34146 ft 458 kts 288°
2026-05-07 09:55 50.57648 10.62407 33459 ft 457 kts 288°
2026-05-07 09:56 50.58796 10.57782 32981 ft 452 kts 294°
2026-05-07 09:56 50.60226 10.53397 32446 ft 449 kts 296°
2026-05-07 09:56 50.61664 10.49053 31927 ft 446 kts 296°
2026-05-07 09:56 50.63090 10.44730 31404 ft 443 kts 297°
2026-05-07 09:57 50.64502 10.40440 30884 ft 439 kts 297°
2026-05-07 09:57 50.65901 10.36178 30355 ft 436 kts 297°
2026-05-07 09:57 50.67285 10.31945 29791 ft 433 kts 297°
2026-05-07 09:57 50.68649 10.27756 29263 ft 427 kts 298°
2026-05-07 09:58 50.69995 10.23615 28759 ft 421 kts 298°
2026-05-07 09:58 50.71321 10.19535 28264 ft 416 kts 298°
2026-05-07 09:58 50.72636 10.15496 27776 ft 411 kts 298°
2026-05-07 09:58 50.73934 10.11505 27296 ft 406 kts 298°
2026-05-07 09:59 50.75213 10.07559 26831 ft 402 kts 298°
2026-05-07 09:59 50.76478 10.03651 26391 ft 398 kts 298°
2026-05-07 09:59 50.77731 9.99773 25936 ft 395 kts 298°
2026-05-07 09:59 50.78972 9.95923 25507 ft 392 kts 298°
2026-05-07 10:00 50.80203 9.92093 25085 ft 390 kts 298°
2026-05-07 10:00 50.81427 9.88279 24666 ft 388 kts 298°
2026-05-07 10:00 50.82640 9.84490 24269 ft 385 kts 298°
2026-05-07 10:00 50.83849 9.80717 23841 ft 383 kts 298°
2026-05-07 10:01 50.85050 9.76965 23393 ft 381 kts 297°
2026-05-07 10:01 50.86238 9.73239 22946 ft 377 kts 298°
2026-05-07 10:01 50.87405 9.69549 22506 ft 373 kts 297°
2026-05-07 10:01 50.88479 9.65836 22082 ft 369 kts 295°
2026-05-07 10:02 50.89460 9.62155 21643 ft 366 kts 293°
2026-05-07 10:02 50.90408 9.58431 21195 ft 363 kts 293°
2026-05-07 10:02 50.91336 9.54738 20753 ft 359 kts 292°
2026-05-07 10:02 50.92264 9.51077 20308 ft 356 kts 293°
2026-05-07 10:03 50.93197 9.47456 19863 ft 353 kts 293°
2026-05-07 10:03 50.94131 9.43872 19410 ft 351 kts 293°
2026-05-07 10:03 50.95063 9.40312 18975 ft 348 kts 293°
2026-05-07 10:03 50.95989 9.36775 18541 ft 346 kts 293°
2026-05-07 10:04 50.96910 9.33254 18065 ft 345 kts 292°
2026-05-07 10:04 50.97823 9.29758 17613 ft 341 kts 293°
2026-05-07 10:04 50.98724 9.26298 17181 ft 337 kts 293°
2026-05-07 10:04 50.99615 9.22876 16742 ft 334 kts 293°
2026-05-07 10:05 51.00494 9.19491 16310 ft 330 kts 293°
2026-05-07 10:05 51.01366 9.16127 15883 ft 328 kts 293°
2026-05-07 10:05 51.02230 9.12787 15454 ft 326 kts 293°
2026-05-07 10:05 51.03085 9.09474 15032 ft 323 kts 293°
2026-05-07 10:06 51.03933 9.06176 14605 ft 321 kts 293°
2026-05-07 10:06 51.04772 9.02900 14187 ft 319 kts 293°
2026-05-07 10:06 51.05605 8.99654 13760 ft 316 kts 293°
2026-05-07 10:06 51.06433 8.96432 13321 ft 313 kts 293°
2026-05-07 10:07 51.07251 8.93242 12916 ft 310 kts 293°
2026-05-07 10:07 51.08062 8.90085 12503 ft 308 kts 294°
2026-05-07 10:07 51.08869 8.86932 12119 ft 310 kts 294°
2026-05-07 10:07 51.09683 8.83752 11811 ft 311 kts 293°
2026-05-07 10:08 51.10496 8.80561 11553 ft 311 kts 293°
2026-05-07 10:08 51.11411 8.77450 11300 ft 309 kts 304°
2026-05-07 10:08 51.12801 8.74860 11077 ft 308 kts 314°
2026-05-07 10:08 51.14271 8.72377 10989 ft 308 kts 314°
2026-05-07 10:09 51.15737 8.69906 11001 ft 307 kts 314°
2026-05-07 10:09 51.17200 8.67438 11004 ft 307 kts 314°
2026-05-07 10:09 51.18665 8.64960 11004 ft 308 kts 314°
2026-05-07 10:09 51.20132 8.62471 11004 ft 307 kts 314°
2026-05-07 10:10 51.21594 8.59990 11006 ft 307 kts 314°
2026-05-07 10:10 51.23053 8.57511 11011 ft 306 kts 314°
2026-05-07 10:10 51.24506 8.55039 11013 ft 306 kts 314°
2026-05-07 10:10 51.25960 8.52561 11013 ft 305 kts 314°
2026-05-07 10:11 51.27416 8.50079 11014 ft 308 kts 314°
2026-05-07 10:11 51.28887 8.47576 11012 ft 310 kts 313°
2026-05-07 10:11 51.30363 8.45064 11013 ft 310 kts 314°
2026-05-07 10:11 51.31832 8.42559 11019 ft 306 kts 314°
2026-05-07 10:12 51.33247 8.40141 11001 ft 290 kts 313°
2026-05-07 10:12 51.34613 8.37804 10708 ft 286 kts 313°
2026-05-07 10:12 51.35970 8.35480 10348 ft 285 kts 313°
2026-05-07 10:12 51.37322 8.33167 9993 ft 284 kts 313°
2026-05-07 10:13 51.38669 8.30860 9625 ft 283 kts 314°
2026-05-07 10:13 51.39989 8.28592 9273 ft 281 kts 314°
2026-05-07 10:13 51.41314 8.26313 8931 ft 278 kts 314°
2026-05-07 10:13 51.42629 8.24053 8579 ft 277 kts 314°
2026-05-07 10:14 51.43937 8.21802 8218 ft 275 kts 314°
2026-05-07 10:14 51.45234 8.19566 7905 ft 272 kts 315°
2026-05-07 10:14 51.46518 8.17347 7554 ft 271 kts 314°
2026-05-07 10:14 51.47798 8.15134 7194 ft 271 kts 314°
2026-05-07 10:15 51.49074 8.12924 6847 ft 269 kts 314°
2026-05-07 10:15 51.50343 8.10723 6505 ft 268 kts 315°
2026-05-07 10:15 51.51604 8.08537 6159 ft 266 kts 315°
2026-05-07 10:15 51.52858 8.06368 5815 ft 264 kts 315°
2026-05-07 10:16 51.54103 8.04213 5467 ft 262 kts 314°
2026-05-07 10:16 51.55342 8.02066 5122 ft 261 kts 314°
2026-05-07 10:16 51.56571 7.99931 4775 ft 260 kts 314°
2026-05-07 10:16 51.57784 7.97823 4558 ft 253 kts 314°
2026-05-07 10:17 51.58951 7.95763 4370 ft 245 kts 310°
2026-05-07 10:17 51.59648 7.93331 4195 ft 239 kts 281°
2026-05-07 10:17 51.59800 7.90706 4011 ft 232 kts 275°
2026-05-07 10:17 51.59863 7.88175 3852 ft 221 kts 274°
2026-05-07 10:18 51.59908 7.85764 3666 ft 210 kts 272°
2026-05-07 10:18 51.59632 7.83538 3463 ft 199 kts 248°
2026-05-07 10:18 51.58981 7.81634 3194 ft 190 kts 242°
2026-05-07 10:18 51.58349 7.79830 2941 ft 181 kts 243°
2026-05-07 10:19 51.57743 7.78097 2703 ft 174 kts 243°
2026-05-07 10:19 51.57158 7.76421 2474 ft 169 kts 243°
2026-05-07 10:19 51.56588 7.74789 2234 ft 166 kts 243°
2026-05-07 10:19 51.56030 7.73196 2015 ft 161 kts 243°
2026-05-07 10:20 51.55496 7.71671 1797 ft 155 kts 243°
2026-05-07 10:20 51.54970 7.70168 1576 ft 154 kts 243°
2026-05-07 10:20 51.54447 7.68675 1365 ft 152 kts 242°
2026-05-07 10:20 51.53930 7.67199 1151 ft 151 kts 242°
2026-05-07 10:21 51.53416 7.65736 942 ft 150 kts 242°
2026-05-07 10:21 51.52906 7.64281 741 ft 149 kts 242°
2026-05-07 10:21 51.52395 7.62835 531 ft 149 kts 242°
2026-05-07 10:21 51.51909 7.61427 415 ft 126 kts 241°
2026-05-07 10:22 51.51624 7.60628 410 ft 48 kts 240°
2026-05-07 10:22 51.51496 7.60273 413 ft 23 kts 231°
2026-05-07 10:22 51.51385 7.60287 417 ft 16 kts 140°
2026-05-07 10:22 51.51376 7.60441 412 ft 15 kts 64°
2026-05-07 10:23 51.51428 7.60590 421 ft 16 kts 60°
2026-05-07 10:23 51.51489 7.60762 418 ft 19 kts 61°
2026-05-07 10:23 51.51543 7.60915 423 ft 9 kts 62°
2026-05-07 10:23 51.51568 7.60997 418 ft 8 kts 71°
2026-05-07 10:24 51.51547 7.61049 423 ft 5 kts 149°
2026-05-07 10:24 51.51509 7.61042 429 ft 6 kts 220°
2026-05-07 10:24 51.51463 7.61029 426 ft 8 kts 162°
2026-05-07 10:24 51.51438 7.61056 427 ft 0 kts 143°